Weather History for Dayton, OH

Change the Weather History Date:

Friday, November 4, 2011

  Actual Average Record
Temperature  
Mean Temperature 45 °F 48 °F  
Max Temperature 55 °F 57 °F 76 °F (1975)
Min Temperature 35 °F 39 °F 17 °F (1951)
Degree Days  
Heating Degree Days 20 17  
Month to date heating degree days 66 67  
Since 1 July heating degree days 545 514  
Cooling Degree Days 0 0  
Month to date cooling degree days 0 0  
Year to date cooling degree days 1160 891  
Moisture  
Dew Point 36 °F    
Average Humidity 66    
Maximum Humidity 93    
Minimum Humidity 38    
Precipitation  
Precipitation 0.02 in 0.10 in 1.93 in (1936)
Month to date precipitation 0.25 0.43  
Year to date precipitation 45.82 34.97  
Snow  
Snow 0.00 in 0.00 in 0.80 in (1954)
Month to date snowfall 0.0 0.0  
Since 1 July snowfall 0.0 0.4  
Since 1 September snowfall 0.0 0.4  
Snow Depth 0.00 in    
Sea Level Pressure  
Sea Level Pressure 30.18 in    
Wind  
Wind Speed 14 mph (NNE)    
Max Wind Speed 23 mph    
Max Gust Speed 29 mph    
Visibility 9 miles    
Events Rain    
T = Trace of Precipitation, MM = Missing Value Source: NWS Daily Summary

Daily Weather History Graph

Daily Weather History Graph

Search for Another Location

Airport:

Trip Planner

Search our weather history database for the weather conditions in past years. The results will help you decide how hot, cold, wet, or windy it might be!

Date:

Astronomy

Nov. 04, 2011 Rise Set
Actual Time 8:08 AM EDT 6:31 PM EDT
Civil Twilight 7:40 AM EDT 6:59 PM EDT
Nautical Twilight 7:08 AM EDT 7:31 PM EDT
Astronomical Twilight 6:36 AM EDT 8:03 PM EDT
Moon 3:22 PM EDT (11/4) 2:20 AM EDT (11/4)
Length of Visible Light 11h 19m
Length of Day
10h 22m
Waxing Gibbous, 69% of the Moon is Illuminated
Nov 4
Waxing Gibbous
Nov 10
Full
Nov 18
Last Quarter
Nov 25
New
Dec 2
First Quarter

Hourly Weather History & Observations

Time (EDT) Temp. Windchill Dew Point Humidity Pressure Visibility Wind Dir Wind Speed Gust Speed Precip Events Conditions
12:10 AM 48.2 °F - 46.4 °F 93% 30.00 in 6.0 mi NNE 18.4 mph 24.2 mph 0.00 in Rain Light Rain
12:56 AM 46.9 °F - 45.0 °F 93% 30.02 in 5.0 mi NNE 18.4 mph - 0.06 in Rain Light Rain
1:56 AM 46.0 °F 39.9 °F 44.1 °F 93% 30.04 in 8.0 mi NNE 13.8 mph - 0.02 in Rain Light Rain
2:56 AM 46.0 °F 39.0 °F 44.1 °F 93% 30.04 in 9.0 mi NNE 17.3 mph - 0.00 in   Overcast
3:56 AM 46.0 °F 38.5 °F 43.0 °F 89% 30.06 in 7.0 mi NNE 19.6 mph 28.8 mph 0.00 in   Overcast
4:56 AM 45.0 °F 37.6 °F 42.1 °F 90% 30.07 in 10.0 mi NNE 17.3 mph 25.3 mph 0.00 in   Overcast
5:56 AM 44.1 °F 36.8 °F 41.0 °F 89% 30.09 in 10.0 mi NNE 16.1 mph - N/A   Overcast
6:56 AM 43.0 °F 35.1 °F 39.9 °F 89% 30.13 in 10.0 mi NNE 17.3 mph - N/A   Overcast
7:56 AM 43.0 °F 35.1 °F 39.0 °F 86% 30.15 in 10.0 mi NNE 17.3 mph - N/A   Overcast
8:37 AM 41.0 °F 33.1 °F 37.4 °F 87% 30.17 in 10.0 mi NNE 15.0 mph - N/A   Scattered Clouds
8:56 AM 42.1 °F 34.9 °F 37.0 °F 82% 30.19 in 10.0 mi NNE 13.8 mph 20.7 mph N/A   Partly Cloudy
9:56 AM 44.6 °F 38.1 °F 37.4 °F 76% 30.19 in 10.0 mi NE 13.8 mph - N/A   Clear
10:56 AM 46.9 °F - 37.0 °F 68% 30.20 in 10.0 mi NE 15.0 mph - N/A   Clear
11:56 AM 50.0 °F - 35.1 °F 57% 30.22 in 10.0 mi NE 15.0 mph - N/A   Clear
12:56 PM 52.0 °F - 35.1 °F 53% 30.22 in 10.0 mi NE 15.0 mph - N/A   Clear
1:56 PM 53.6 °F - 35.6 °F 51% 30.21 in 10.0 mi NNE 16.1 mph 20.7 mph N/A   Clear
2:56 PM 55.0 °F - 32.0 °F 42% 30.22 in 10.0 mi NE 12.7 mph 23.0 mph N/A   Clear
3:56 PM 55.0 °F - 30.0 °F 38% 30.22 in 10.0 mi NNE 15.0 mph - N/A   Clear
4:56 PM 54.0 °F - 28.9 °F 38% 30.23 in 10.0 mi NNE 15.0 mph - N/A   Partly Cloudy
5:56 PM 51.8 °F - 28.4 °F 41% 30.23 in 10.0 mi NNE 12.7 mph - N/A   Scattered Clouds
6:56 PM 45.0 °F 40.1 °F 30.9 °F 58% 30.27 in 10.0 mi NNE 9.2 mph - N/A   Scattered Clouds
7:56 PM 43.0 °F 37.2 °F 30.0 °F 60% 30.30 in 10.0 mi NE 10.4 mph - N/A   Partly Cloudy
8:56 PM 41.0 °F 35.8 °F 30.0 °F 65% 30.30 in 10.0 mi NE 8.1 mph - N/A   Clear
9:56 PM 39.0 °F 32.3 °F 28.9 °F 67% 30.31 in 10.0 mi ENE 10.4 mph - N/A   Clear
10:56 PM 35.6 °F 29.2 °F 28.4 °F 75% 30.30 in 10.0 mi NE 8.1 mph - N/A   Clear
11:56 PM 36.0 °F 29.0 °F 28.0 °F 73% 30.30 in 10.0 mi ENE 9.2 mph - N/A   Clear